Lid_Strength_Index
2 2 2 2 2 2 2 2 2 3 2 2 2 2 2 1 2 4 7 4 2 -1 -1 6 6 6 7 7 7 8 12 15 13 14 13 12 12 11 11 11 11 10 10 9 3
2 2 2 2 2 2 2 3 3 3 3 2 2 2 2 2 5 7 2 -1 -1 -2 4 5 7 8 9 9 8 9 13 13 11 11 12 12 12 11 11 12 12 11 8 5 4
2 2 2 3 3 3 3 3 3 3 2 2 2 2 2 2 8 7 0 -2 -2 -1 1 5 7 8 10 9 9 10 13 11 10 10 10 11 12 11 12 12 11 11 9 5 4
3 3 3 3 3 3 3 3 3 2 2 2 2 2 1 4 14 7 1 -1 -2 1 2 7 8 9 11 11 9 11 10 10 9 9 10 11 11 12 12 11 11 10 6 5 5
3 3 3 3 3 3 3 3 2 2 2 1 1 1 3 7 8 3 -1 1 2 2 3 5 10 9 10 10 9 10 10 9 9 9 9 10 11 11 12 11 11 8 6 6 5
3 3 3 3 3 3 3 3 2 2 1 1 1 1 4 9 4 3 3 4 4 5 3 4 8 8 9 9 9 9 9 9 9 9 9 10 10 11 11 11 10 9 9 7 6
3 3 3 3 3 3 3 2 2 2 1 1 0 2 5 6 4 2 3 4 3 4 5 3 6 8 9 10 9 9 11 10 10 10 10 9 11 12 10 11 11 10 9 9 8
3 3 3 3 3 3 3 2 2 2 2 0 -1 2 6 3 2 3 2 3 2 2 3 4 5 7 8 8 8 10 10 13 10 10 10 9 13 10 9 10 11 11 10 10 10
3 3 3 3 3 3 3 3 2 2 2 2 4 5 8 2 5 2 2 4 3 4 3 4 5 8 7 11 12 12 15 14 12 10 10 11 13 10 10 10 10 11 11 10 11
3 3 3 3 3 3 3 3 3 4 4 4 2 7 7 7 5 4 4 2 4 6 5 7 8 10 10 11 17 15 15 14 13 11 11 12 13 11 10 10 10 11 12 11 11
3 3 3 3 3 3 5 9 9 11 8 10 9 9 8 5 4 6 4 3 5 6 10 8 11 13 11 11 11 12 13 13 12 10 11 12 12 11 10 10 11 11 12 14 13
3 3 3 3 3 3 7 9 8 6 10 8 7 7 6 5 8 6 2 7 8 11 8 11 14 10 9 9 10 11 13 13 11 11 11 12 12 11 10 10 11 11 12 14 14
3 3 3 3 3 6 8 8 4 4 10 10 7 8 7 6 8 8 4 6 9 10 11 13 11 9 10 11 12 13 13 13 13 12 12 13 14 14 12 12 11 12 13 14 15
3 3 3 3 8 8 9 5 5 5 15 12 10 6 6 6 9 4 3 6 9 11 10 11 9 10 11 12 11 15 10 11 12 13 17 14 19 15 14 14 13 12 13 14 14
3 3 3 4 9 9 7 5 5 7 26 11 10 4 6 8 7 7 3 7 11 11 10 12 11 12 12 12 10 13 10 11 12 14 15 15 17 15 14 15 14 13 13 14 16
3 3 4 7 8 7 5 6 9 19 26 12 9 9 9 8 8 7 7 5 7 10 10 10 9 9 10 9 9 11 12 12 13 14 19 19 16 16 15 15 14 14 14 14 16
3 4 6 6 10 6 7 10 19 23 12 12 11 9 10 11 10 9 11 11 13 15 15 12 12 11 10 12 10 10 14 19 20 20 21 19 18 16 14 14 15 17 15 15 18
3 5 7 7 7 7 10 15 24 15 16 10 10 10 13 11 10 11 12 13 10 12 15 16 17 13 11 11 13 12 14 19 23 22 20 17 20 15 16 16 18 19 18 16 16
5 11 10 9 8 8 13 21 19 18 10 11 10 13 15 11 11 12 12 13 11 11 15 17 16 12 12 11 11 13 15 14 20 19 20 18 16 15 15 16 16 17 17 18 16
12 13 12 8 8 10 16 16 13 9 9 10 14 12 15 13 13 13 13 10 11 9 10 14 17 13 12 10 10 12 12 16 18 23 25 20 19 17 16 16 16 18 19 20 19
13 15 11 8 9 13 18 17 12 8 8 11 12 12 13 13 12 13 13 11 10 10 9 13 17 15 12 13 14 14 15 16 17 19 23 22 18 17 18 19 17 17 18 19 20
13 18 11 10 16 19 19 15 9 9 7 9 9 10 12 12 13 13 13 11 9 9 12 12 18 18 16 14 13 13 14 15 18 21 22 21 18 16 18 19 18 17 18 21 21
16 15 10 11 21 19 13 12 10 10 9 10 11 9 10 12 14 12 11 9 9 10 12 11 18 19 16 14 14 14 14 16 18 19 22 20 18 15 16 19 18 18 18 20 21
16 19 15 15 17 16 14 14 12 9 9 9 9 9 11 12 11 13 12 10 9 10 8 11 18 21 21 20 18 19 18 16 17 18 21 20 17 16 15 16 17 18 20 22 21
15 17 14 20 18 14 14 15 13 13 9 9 10 10 11 17 15 14 13 12 10 11 12 14 18 18 17 16 17 17 20 20 20 18 18 19 18 17 15 16 18 21 22 21 19
15 16 15 18 15 15 16 17 13 13 12 11 12 11 10 13 13 15 14 14 14 14 18 16 17 20 21 17 18 18 16 18 18 17 18 19 18 15 16 17 18 21 22 20 19
12 11 14 16 15 18 17 15 13 11 11 9 9 10 12 10 9 10 11 13 15 18 18 21 21 22 23 19 24 21 22 19 18 19 17 18 15 15 15 14 16 19 21 20 19